Погода в Шангале

Россия / Ставропольский край     45°31′20″N   42°40′27″E
темп.,
°C
ветер,
м/с
пор.,
м/с
влажн.,
%
обл.,
%
осадки,
мм/ч
давл.,
гПа
погр.,
м
15 мая, сб
сб1500:00+16юв34665 0.0 101142
03:00+16юв336665 0.0 101134
06:00+17ю227825 0.0 101253
09:00+23зсз45768 0.0 1013576
12:00+27сз44605 0.0 10131050
15:00+28ссз44535 0.0 10121256
18:00+26ссз356750 0.0 1012166
21:00+21ссз2280100 0.1 101318
16 мая, вс
вс1600:00+19в3479100 0.0 101149
03:00+17вюв3451100 0.0 101144
06:00+15вюв4861100 0.0 1011165
09:00+20вюв675361 0.0 1010476
12:00+26вюв79474 0.0 10091002
15:00+29вюв711365 0.0 10071537
18:00+25вюв714415 0.0 1006395
21:00+19в6164840 0.0 1006382
17 мая, пн
пн1700:00+18вюв6154767 0.0 1005377
03:00+16вюв41252100 0.0 1005288
06:00+15вюв41164100 0.0 1006305
09:00+21юв5751100 0.0 1006493
12:00+26юв34444 0.0 1006994
15:00+29юв133864 0.0 10061680
18:00+23зсз71169100 0.0 1006347
21:00+20з5883100 0.0 1009224
18 мая, вт
вт1800:00+18з81386100 0.0 1009527
03:00+17зсз81391100 0.1 1009721
06:00+15зсз61292100 0.3 1011519
09:00+18зсз7974100 0.4 1012733
12:00+21зсз786025 0.0 10121239
15:00+23сз565410 0.0 10131606
18:00+21зсз5763100 0.0 1012583
21:00+16з35821 0.0 101483
19 мая, ср
ср1900:00+15з338914 0.0 101443
03:00+14з229225 0.0 101537
06:00+15зюз238645 0.0 101597
09:00+21юз11635 0.0 1015699
12:00+25ююв11470 0.0 10141422
15:00+26вюв224229 0.0 10131812
18:00+25вюв3556100 0.0 1012136
21:00+20юв356729 0.0 101262